[[{"header":{"parameterUnit":"m.s-1","parameterCategory":1,"la1":30.2991,"la2":30.254,"lo1":-89.0895,"lo2":-89.0444,"dy":0.0017,"dx":0.0017,"nx":28,"ny":28,"refTime":"2023-08-17T09:00:00:Z","depth":0,"parameterNumber":2,"parameterNumberName":"U-component_of_WINDS"},"data":[0,0,0,0,0,0,0,0,0,0,0,0,0,0,0,0,0,0,0,0,0,0,0,0,0,0,0,0,0,0,0,0,0,0,0,0,0,0,0,0,0,0,0,0,0,0,0,0,0,0,0,0,0,0,0,0,0,0,1.9838,1.9839,0,1.9887,1.9888,1.9889,1.9891,1.9891,1.989,1.989,1.994,1.9941,1.9943,0,0,0,0,0,0,0,0,0,0,0,0,0,1.9745,1.9747,1.9838,1.9839,1.9839,1.9887,1.9888,1.9889,1.9891,1.9891,1.989,1.9889,1.9939,1.9941,1.9944,0,0,0,0,0,0,0,0,0,0,0,0,0,1.9789,1.9747,1.9838,1.9846,1.9848,1.9887,1.9888,1.9889,1.9892,1.9891,1.989,1.9889,1.9938,1.9941,1.9944,1.9978,0,0,1.9952,1.9954,0,0,0,0,0,0,0,0,1.9787,1.9793,1.9844,1.9846,1.9847,1.9882,1.9874,1.9919,1.9892,1.9875,1.989,1.9889,1.9921,1.9925,1.9937,1.998,1.9983,1.9953,1.9954,1.9955,1.9956,0,0,0,0,0,0,0,1.9784,1.979,1.9858,1.9845,1.9847,1.9848,1.9853,1.9882,1.9902,1.9876,1.9877,1.9882,1.9922,1.9934,1.9938,1.9983,1.9953,1.9955,1.9957,1.9958,2.0058,2.0059,0,0,0,0,0,0,1.9779,1.9788,1.9856,1.9859,1.9814,1.985,1.9856,1.9872,1.9902,1.9906,1.9883,1.9882,1.9929,1.9934,1.994,1.9982,1.9955,1.9958,1.996,2.0057,2.0058,2.006,0,0,0,0,0,0,1.9777,1.9785,1.9854,1.9824,1.9832,1.9852,1.9871,1.9873,1.9885,1.9907,1.9911,1.9892,1.9929,1.9936,1.9969,1.9984,1.9959,1.9962,2.0056,2.0058,2.0059,2.0067,0,0,0,0,0,0,1.9774,1.9784,1.9798,1.9824,1.9834,1.9882,1.9871,1.9875,1.989,1.989,1.9916,1.992,1.9929,1.9964,1.9971,1.9987,1.9964,2.0055,2.0057,2.0059,2.0065,2.0068,2.0071,0,0,0,0,0,1.9771,1.9798,1.9798,1.9807,1.9851,1.9883,1.9889,1.9899,1.9891,1.9905,1.9919,1.9919,1.9981,1.9968,1.9976,1.9992,2.0054,2.0056,2.0058,2.0064,2.0068,2.0071,0,0,0,0,0,0,1.9772,1.9801,1.9802,1.9838,1.9858,1.9884,1.9901,1.9903,1.9925,1.9924,1.9935,1.9941,1.9974,1.9987,1.9972,2.0027,2.0016,2.002,2.0018,2.0022,2.0025,2.0021,1.9966,0,0,0,0,0,1.9777,1.9801,1.9825,1.9854,1.9864,1.9881,1.9895,1.9901,1.9923,1.9931,1.9947,1.9968,1.9992,2.0007,2.0031,2.0067,2.0073,2.0082,2.0085,2.0087,2.0091,2.0111,2.0115,2.0067,2.0067,2.0067,0,0,1.9786,1.9805,1.9819,1.9855,1.9871,1.9895,1.9888,1.9914,1.9932,1.9935,1.9967,1.998,2.0003,2.0038,2.0054,2.005,2.0105,2.009,2.0092,2.0094,2.0114,2.0118,2.0122,2.0068,2.0068,2.0068,0,0,1.9816,1.9833,1.9859,1.9876,1.9901,1.9912,1.9918,1.9943,1.9952,1.9985,1.9987,2.0009,2.005,2.0067,2.0081,2.0117,2.0118,2.0125,2.0139,2.0159,2.0163,2.0166,2.0179,2.0184,2.0128,2.0128,2.0128,0,1.9825,1.9862,1.9872,1.9899,1.9914,1.9918,1.9945,1.996,1.9991,2.0002,1.9996,2.0048,2.0064,2.0103,2.0112,2.0123,2.0131,2.0121,2.0161,2.0165,2.0168,2.0181,2.0186,2.0128,2.0128,2.0128,2.0128,0,1.9871,1.9897,1.9915,1.9945,1.9963,1.9989,2.0004,2.002,2.0025,2.0037,2.007,2.0089,2.0117,2.0127,2.0131,2.0166,2.0162,2.0159,2.0148,2.0173,2.0185,2.019,2.0129,2.0129,2.0129,2.0129,0,0,1.9903,1.9939,1.9945,1.9959,1.9987,2.0007,2.0034,2.0061,2.0075,2.0096,2.0119,2.0154,2.0151,2.0167,2.0173,2.019,2.0218,2.0185,2.0185,2.019,2.0258,2.026,2.0266,2.0219,2.022,2.0221,2.0256,0,1.9936,1.9983,1.9994,2.0035,2.0058,2.0063,2.0086,2.0105,2.0117,2.0139,2.0151,2.0176,2.017,2.018,2.0197,2.0211,2.0232,2.0209,2.024,2.0241,2.0234,2.0272,2.0275,2.0307,2.0261,2.0261,2.0262,0,1.998,2.0003,2.0046,2.0071,2.0082,2.0102,2.0128,2.0149,2.0171,2.0179,2.0196,2.0201,2.0229,2.0217,2.0255,2.024,2.0253,2.0262,2.0263,2.0266,2.0253,2.0276,2.0317,2.0322,2.0269,2.0269,2.0268,0,1.9999,2.0041,2.0072,2.0084,2.0114,2.0128,2.0141,2.0163,2.0178,2.0201,2.0211,2.0237,2.025,2.027,2.0282,2.0272,2.0319,2.0308,2.0326,2.0325,2.0335,2.0334,2.0379,2.0344,2.0344,2.0344,2.0344,0,2.0035,2.0061,2.0081,2.01,2.013,2.0142,2.0171,2.0184,2.0203,2.0225,2.023,2.025,2.0264,2.0287,2.0296,2.0326,2.0332,2.0339,2.0341,2.0338,2.0338,2.0347,2.0345,2.0345,2.0345,2.0345,2.0344,0,2.0061,2.0075,2.011,2.0135,2.0142,2.0163,2.0185,2.0204,2.0215,2.0243,2.025,2.0269,2.0295,2.0309,2.0342,2.0348,2.0382,2.0383,2.0374,2.0375,2.0392,2.039,2.0444,2.0452,2.0412,2.0412,2.0413,0,2.0083,2.0103,2.0131,2.0146,2.016,2.0184,2.02,2.0212,2.0229,2.0256,2.0271,2.0298,2.032,2.0362,2.0379,2.0404,2.0405,2.0423,2.0409,2.0406,2.0406,2.0404,2.0406,2.0425,2.0425,2.0426,2.0426,0,2.012,2.0126,2.0149,2.0175,2.0194,2.0215,2.0236,2.0248,2.0263,2.0282,2.0309,2.0326,2.036,2.0386,2.0413,2.0426,2.0429,2.043,2.0435,2.0433,2.0427,2.043,2.0381,2.0429,2.0428,2.0428,2.0428,2.0428,2.0145,2.0163,2.0185,2.0211,2.0228,2.0247,2.0266,2.028,2.0303,2.0332,2.0338,2.0367,2.0388,2.0424,2.0439,2.0461,2.0458,2.0465,2.0467,2.0469,2.047,2.0424,2.0466,2.0466,2.0466,2.0466,2.0466,0,2.0182,2.0197,2.022,2.0249,2.0269,2.027,2.0293,2.0309,2.0335,2.0355,2.0377,2.0408,2.0434,2.0452,2.0479,2.0493,2.0495,2.05,2.0498,2.0501,2.0471,2.0464,2.0498,2.0498,2.0498,2.0498,2.0498,2.0498,2.0204,2.0235,2.0244,2.0283,2.0298,2.0326,2.0339,2.0357,2.0373,2.0408,2.0429,2.0441,2.0461,2.0488,2.0512,2.0517,2.0526,2.0531,2.0535,2.0507,2.0504,2.05,2.0494,2.0533,2.0533,2.0563,2.0564,2.0564]},{"header":{"parameterUnit":"m.s-1","parameterCategory":1,"la1":30.2991,"la2":30.254,"lo1":-89.0895,"lo2":-89.0444,"dy":0.0017,"dx":0.0017,"nx":28,"ny":28,"refTime":"2023-08-17T09:00:00:Z","depth":0,"parameterNumber":3,"parameterNumberName":"V-component_of_WINDS"},"data":[0,0,0,0,0,0,0,0,0,0,0,0,0,0,0,0,0,0,0,0,0,0,0,0,0,0,0,0,0,0,0,0,0,0,0,0,0,0,0,0,0,0,0,0,0,0,0,0,0,0,0,0,0,0,0,0,0,0,-0.4413,-0.4413,0,-0.4405,-0.4405,-0.4404,-0.4369,-0.4368,-0.4367,-0.4366,-0.4359,-0.4359,-0.436,0,0,0,0,0,0,0,0,0,0,0,0,0,-0.4401,-0.4401,-0.4413,-0.4413,-0.4413,-0.4405,-0.4405,-0.4404,-0.4369,-0.4368,-0.4367,-0.4366,-0.4358,-0.4359,-0.436,0,0,0,0,0,0,0,0,0,0,0,0,0,-0.4401,-0.4401,-0.4413,-0.4394,-0.4393,-0.4405,-0.4405,-0.4404,-0.4369,-0.4368,-0.4366,-0.4365,-0.4358,-0.4359,-0.436,-0.439,0,0,-0.4362,-0.4363,0,0,0,0,0,0,0,0,-0.4401,-0.4401,-0.4397,-0.4396,-0.4394,-0.4386,-0.4397,-0.44,-0.4369,-0.4378,-0.4366,-0.4365,-0.4369,-0.4369,-0.437,-0.439,-0.4389,-0.4363,-0.4363,-0.4363,-0.4364,0,0,0,0,0,0,0,-0.4401,-0.4401,-0.441,-0.4397,-0.4395,-0.4387,-0.4385,-0.4398,-0.4381,-0.4377,-0.4374,-0.4374,-0.4368,-0.4369,-0.437,-0.4389,-0.4363,-0.4363,-0.4364,-0.4364,-0.4434,-0.4435,0,0,0,0,0,0,-0.4403,-0.4402,-0.441,-0.441,-0.4394,-0.4388,-0.4386,-0.439,-0.438,-0.4378,-0.4375,-0.4372,-0.4368,-0.4369,-0.4369,-0.4404,-0.4363,-0.4364,-0.4365,-0.4432,-0.4434,-0.4435,0,0,0,0,0,0,-0.4403,-0.4404,-0.4411,-0.4405,-0.4405,-0.4389,-0.4394,-0.4391,-0.4392,-0.4379,-0.4376,-0.4379,-0.4367,-0.4368,-0.4385,-0.4403,-0.4365,-0.4365,-0.4431,-0.4433,-0.4435,-0.4474,0,0,0,0,0,0,-0.4403,-0.4405,-0.4416,-0.4405,-0.4406,-0.4426,-0.4395,-0.4391,-0.4393,-0.439,-0.4382,-0.438,-0.4366,-0.4384,-0.4386,-0.4404,-0.4366,-0.4429,-0.4432,-0.4434,-0.4471,-0.4477,-0.4482,0,0,0,0,0,-0.4403,-0.4427,-0.4416,-0.4418,-0.4419,-0.4427,-0.4428,-0.4411,-0.4395,-0.4406,-0.4398,-0.438,-0.4401,-0.4386,-0.4388,-0.4406,-0.4428,-0.4431,-0.4434,-0.4468,-0.4475,-0.4482,0,0,0,0,0,0,-0.444,-0.4425,-0.4413,-0.4435,-0.4433,-0.4421,-0.4435,-0.442,-0.4422,-0.4419,-0.4399,-0.4398,-0.4418,-0.4414,-0.4398,-0.4435,-0.4411,-0.4415,-0.4437,-0.4444,-0.4449,-0.445,-0.4367,0,0,0,0,0,-0.4451,-0.4459,-0.4446,-0.4466,-0.4466,-0.4451,-0.4454,-0.4441,-0.4438,-0.4437,-0.443,-0.4428,-0.4434,-0.4439,-0.4444,-0.447,-0.4468,-0.4483,-0.4489,-0.4494,-0.4497,-0.451,-0.4517,-0.4445,-0.4445,-0.4445,0,0,-0.4473,-0.4466,-0.4472,-0.4474,-0.447,-0.4479,-0.445,-0.4461,-0.4467,-0.4439,-0.4455,-0.445,-0.4446,-0.4468,-0.4477,-0.4465,-0.4516,-0.4498,-0.4501,-0.4502,-0.4514,-0.4521,-0.4527,-0.4447,-0.4447,-0.4447,0,0,-0.4519,-0.4514,-0.453,-0.4528,-0.4523,-0.4513,-0.4517,-0.4508,-0.4503,-0.4519,-0.4498,-0.4506,-0.4517,-0.4515,-0.4516,-0.4561,-0.4545,-0.4563,-0.4592,-0.4606,-0.4611,-0.4616,-0.4632,-0.4638,-0.4566,-0.4567,-0.4567,0,-0.4547,-0.4559,-0.4541,-0.4553,-0.4554,-0.4529,-0.4546,-0.4544,-0.4542,-0.4543,-0.453,-0.4543,-0.4539,-0.456,-0.4571,-0.4573,-0.4577,-0.4564,-0.4612,-0.4617,-0.4621,-0.4636,-0.4642,-0.4569,-0.4569,-0.4568,-0.4568,0,-0.4594,-0.4603,-0.4617,-0.4615,-0.4617,-0.4632,-0.4617,-0.4622,-0.461,-0.4601,-0.4617,-0.4612,-0.4615,-0.4619,-0.4608,-0.4639,-0.4631,-0.4615,-0.4591,-0.463,-0.4644,-0.465,-0.4572,-0.4571,-0.4571,-0.457,0,0,-0.4662,-0.465,-0.4655,-0.4654,-0.4647,-0.4654,-0.4667,-0.467,-0.4675,-0.4674,-0.4685,-0.4695,-0.468,-0.4681,-0.4669,-0.4681,-0.4717,-0.4663,-0.4663,-0.4673,-0.4751,-0.4763,-0.477,-0.4707,-0.4708,-0.4708,-0.4751,0,-0.4705,-0.4727,-0.4711,-0.4736,-0.4744,-0.472,-0.4732,-0.4729,-0.4722,-0.4728,-0.472,-0.4727,-0.4707,-0.4708,-0.4718,-0.471,-0.4732,-0.4707,-0.4717,-0.4717,-0.4718,-0.4777,-0.479,-0.4831,-0.4757,-0.4758,-0.4758,0,-0.4758,-0.4759,-0.4784,-0.4776,-0.4778,-0.4789,-0.4791,-0.4797,-0.4793,-0.4787,-0.4788,-0.4773,-0.4787,-0.4763,-0.4781,-0.4765,-0.4768,-0.4765,-0.4766,-0.4766,-0.474,-0.4779,-0.4843,-0.4849,-0.4767,-0.4766,-0.4765,0,-0.4804,-0.4812,-0.4828,-0.4828,-0.4819,-0.4827,-0.4824,-0.4819,-0.4822,-0.4823,-0.4825,-0.4828,-0.483,-0.4833,-0.482,-0.4804,-0.484,-0.4815,-0.4835,-0.4836,-0.4843,-0.4843,-0.4909,-0.4846,-0.4846,-0.4846,-0.4846,0,-0.4854,-0.487,-0.4849,-0.4859,-0.4877,-0.4859,-0.4878,-0.4872,-0.4868,-0.4877,-0.4857,-0.4866,-0.4848,-0.4855,-0.4844,-0.4861,-0.4862,-0.4858,-0.4855,-0.4859,-0.486,-0.4861,-0.4857,-0.4848,-0.4847,-0.4847,-0.4847,0,-0.4909,-0.4895,-0.4911,-0.4901,-0.4899,-0.4913,-0.4904,-0.4913,-0.4905,-0.4916,-0.4918,-0.4904,-0.4912,-0.4899,-0.4904,-0.4897,-0.4921,-0.4913,-0.4921,-0.4919,-0.494,-0.4938,-0.5009,-0.5017,-0.4949,-0.4949,-0.495,0,-0.4941,-0.4952,-0.4944,-0.4948,-0.4945,-0.4952,-0.4955,-0.4938,-0.4942,-0.494,-0.4949,-0.4955,-0.4958,-0.4971,-0.4962,-0.4966,-0.4959,-0.4984,-0.496,-0.4964,-0.4959,-0.4959,-0.496,-0.4988,-0.4989,-0.499,-0.499,0,-0.4999,-0.4992,-0.4996,-0.4998,-0.5002,-0.5003,-0.5002,-0.5007,-0.499,-0.4995,-0.5002,-0.5005,-0.501,-0.5016,-0.5018,-0.5015,-0.5,-0.4998,-0.5003,-0.5007,-0.5012,-0.501,-0.4935,-0.4996,-0.4996,-0.4995,-0.4995,-0.4995,-0.5043,-0.5053,-0.5048,-0.5053,-0.5051,-0.5051,-0.5059,-0.5052,-0.5057,-0.506,-0.505,-0.506,-0.5056,-0.5058,-0.5057,-0.5064,-0.5053,-0.506,-0.5062,-0.5064,-0.5067,-0.5011,-0.5064,-0.5064,-0.5064,-0.5064,-0.5064,0,-0.51,-0.5096,-0.5101,-0.5101,-0.5106,-0.509,-0.5089,-0.5094,-0.5103,-0.5101,-0.5105,-0.5113,-0.5118,-0.511,-0.5115,-0.5122,-0.5115,-0.5124,-0.5123,-0.5123,-0.5076,-0.5072,-0.5129,-0.5129,-0.5129,-0.5129,-0.5129,-0.5129,-0.513,-0.5145,-0.5138,-0.5152,-0.5148,-0.5157,-0.5157,-0.5158,-0.5156,-0.5166,-0.517,-0.5165,-0.516,-0.5164,-0.5169,-0.5167,-0.5169,-0.518,-0.5175,-0.5132,-0.5126,-0.512,-0.5115,-0.5181,-0.5181,-0.5221,-0.5221,-0.5221]}]]